Tabellarische Ansicht des 6.7.2021


Die einzelnen Werte des Tages

Uhrzeit Temperatur Luftdruck Luftfeuchte Wind Hi-Wind Taupunkt THW Index Wind Chill Heat Index Solar- strahlung Regen

00:00

18.2 C

1004.6 hpa

83 %

4.8 km/h aus 116

12.9 km/h aus SE

15.2 C

18.6 C

18.2 C

18.6 C

0 W/m

0.00 mm

00:05

18.2 C

1004.6 hpa

84 %

8.0 km/h aus 116

16.1 km/h aus SE

15.4 C

18.6 C

18.2 C

18.6 C

0 W/m

0.00 mm

00:10

18.1 C

1004.6 hpa

84 %

6.4 km/h aus 117

14.5 km/h aus SE

15.4 C

18.5 C

18.1 C

18.5 C

0 W/m

0.00 mm

00:15

18.1 C

1004.4 hpa

84 %

8.0 km/h aus 114

16.1 km/h aus ESE

15.3 C

18.4 C

18.1 C

18.4 C

0 W/m

0.00 mm

00:20

18.1 C

1004.4 hpa

85 %

6.4 km/h aus 116

11.3 km/h aus SE

15.5 C

18.4 C

18.1 C

18.4 C

0 W/m

0.00 mm

00:25

18.0 C

1004.4 hpa

85 %

4.8 km/h aus 117

11.3 km/h aus SE

15.4 C

18.4 C

18.0 C

18.4 C

0 W/m

0.00 mm

00:30

18.0 C

1004.3 hpa

85 %

6.4 km/h aus 116

14.5 km/h aus SE

15.4 C

18.4 C

18.0 C

18.4 C

0 W/m

0.00 mm

00:35

18.0 C

1004.3 hpa

85 %

4.8 km/h aus 116

9.7 km/h aus SE

15.4 C

18.4 C

18.0 C

18.4 C

0 W/m

0.00 mm

00:40

18.0 C

1004.3 hpa

85 %

6.4 km/h aus 114

11.3 km/h aus SE

15.4 C

18.4 C

18.0 C

18.4 C

0 W/m

0.00 mm

00:45

17.9 C

1004.2 hpa

85 %

8.0 km/h aus 118

11.3 km/h aus SE

15.4 C

18.3 C

17.9 C

18.3 C

0 W/m

0.00 mm

00:50

17.9 C

1004.2 hpa

86 %

8.0 km/h aus 117

14.5 km/h aus SSE

15.6 C

18.3 C

17.9 C

18.3 C

0 W/m

0.00 mm

00:55

17.9 C

1004.2 hpa

86 %

6.4 km/h aus 117

14.5 km/h aus SE

15.6 C

18.3 C

17.9 C

18.3 C

0 W/m

0.00 mm

01:00

18.0 C

1003.9 hpa

86 %

9.7 km/h aus 115

17.7 km/h aus SSE

15.6 C

18.4 C

18.0 C

18.4 C

0 W/m

0.00 mm

01:05

18.0 C

1003.9 hpa

86 %

8.0 km/h aus 116

16.1 km/h aus ESE

15.6 C

18.4 C

18.0 C

18.4 C

0 W/m

0.00 mm

01:10

18.0 C

1003.9 hpa

86 %

8.0 km/h aus 116

16.1 km/h aus ESE

15.6 C

18.4 C

18.0 C

18.4 C

0 W/m

0.00 mm

01:15

18.1 C

1003.9 hpa

86 %

8.0 km/h aus 116

16.1 km/h aus ESE

15.7 C

18.4 C

18.1 C

18.4 C

0 W/m

0.00 mm

01:20

18.1 C

1003.9 hpa

86 %

6.4 km/h aus 115

14.5 km/h aus ESE

15.7 C

18.4 C

18.1 C

18.4 C

0 W/m

0.00 mm

01:25

18.1 C

1003.9 hpa

86 %

6.4 km/h aus 115

11.3 km/h aus SE

15.7 C

18.4 C

18.1 C

18.4 C

0 W/m

0.00 mm

01:30

18.1 C

1003.9 hpa

86 %

6.4 km/h aus 117

11.3 km/h aus SE

15.7 C

18.4 C

18.1 C

18.4 C

0 W/m

0.00 mm

01:35

18.1 C

1003.9 hpa

86 %

6.4 km/h aus 117

14.5 km/h aus ESE

15.7 C

18.4 C

18.1 C

18.4 C

0 W/m

0.00 mm

01:40

18.1 C

1003.9 hpa

86 %

4.8 km/h aus 117

11.3 km/h aus ESE

15.7 C

18.6 C

18.1 C

18.6 C

0 W/m

0.00 mm

01:45

18.1 C

1003.9 hpa

86 %

3.2 km/h aus 114

9.7 km/h aus ESE

15.7 C

18.6 C

18.1 C

18.6 C

0 W/m

0.00 mm

01:50

18.1 C

1003.9 hpa

86 %

1.6 km/h aus 117

8.0 km/h aus ESE

15.7 C

18.6 C

18.1 C

18.6 C

0 W/m

0.00 mm

01:55

18.1 C

1003.9 hpa

86 %

3.2 km/h aus 116

8.0 km/h aus ESE

15.7 C

18.6 C

18.1 C

18.6 C

0 W/m

0.00 mm

02:00

18.2 C

1003.9 hpa

86 %

1.6 km/h aus 117

6.4 km/h aus ESE

15.8 C

18.6 C

18.2 C

18.6 C

0 W/m

0.00 mm

02:05

18.2 C

1003.9 hpa

87 %

1.6 km/h aus 116

6.4 km/h aus ESE

16.0 C

18.6 C

18.2 C

18.6 C

0 W/m

0.00 mm

02:10

18.2 C

1003.9 hpa

86 %

1.6 km/h aus 114

6.4 km/h aus ESE

15.8 C

18.6 C

18.2 C

18.6 C

0 W/m

0.00 mm

02:15

18.2 C

1003.7 hpa

87 %

1.6 km/h aus 116

4.8 km/h aus ESE

16.0 C

18.6 C

18.2 C

18.6 C

0 W/m

0.00 mm

02:20

18.2 C

1003.7 hpa

87 %

1.6 km/h aus 117

6.4 km/h aus ESE

16.0 C

18.6 C

18.2 C

18.6 C

0 W/m

0.00 mm

02:25

18.2 C

1003.7 hpa

87 %

1.6 km/h aus 117

9.7 km/h aus ESE

16.0 C

18.7 C

18.2 C

18.7 C

0 W/m

0.00 mm

02:30

18.2 C

1003.8 hpa

87 %

3.2 km/h aus 114

6.4 km/h aus ESE

16.0 C

18.7 C

18.2 C

18.7 C

0 W/m

0.00 mm

02:35

18.2 C

1003.8 hpa

87 %

4.8 km/h aus 115

9.7 km/h aus ESE

16.0 C

18.7 C

18.2 C

18.7 C

0 W/m

0.00 mm

02:40

18.3 C

1003.8 hpa

87 %

6.4 km/h aus 117

11.3 km/h aus SE

16.1 C

18.8 C

18.3 C

18.8 C

0 W/m

0.00 mm

02:45

18.3 C

1003.5 hpa

87 %

6.4 km/h aus 117

11.3 km/h aus SE

16.1 C

18.8 C

18.3 C

18.8 C

0 W/m

0.00 mm

02:50

18.3 C

1003.5 hpa

87 %

6.4 km/h aus 117

14.5 km/h aus SE

16.1 C

18.8 C

18.3 C

18.8 C

0 W/m

0.00 mm

02:55

18.3 C

1003.5 hpa

87 %

6.4 km/h aus 113

11.3 km/h aus SE

16.1 C

18.8 C

18.3 C

18.8 C

0 W/m

0.00 mm

03:00

18.3 C

1003.4 hpa

87 %

6.4 km/h aus 116

14.5 km/h aus SSE

16.1 C

18.8 C

18.3 C

18.8 C

0 W/m

0.00 mm

03:05

18.3 C

1003.4 hpa

87 %

6.4 km/h aus 116

11.3 km/h aus SE

16.1 C

18.8 C

18.3 C

18.8 C

0 W/m

0.00 mm

03:10

18.3 C

1003.4 hpa

87 %

3.2 km/h aus 117

9.7 km/h aus SE

16.1 C

18.8 C

18.3 C

18.8 C

0 W/m

0.00 mm

03:15

18.4 C

1003.3 hpa

87 %

3.2 km/h aus 113

9.7 km/h aus SE

16.2 C

18.9 C

18.4 C

18.9 C

0 W/m

0.00 mm

03:20

18.4 C

1003.3 hpa

87 %

4.8 km/h aus 115

9.7 km/h aus SE

16.2 C

18.9 C

18.4 C

18.9 C

0 W/m

0.00 mm

03:25

18.4 C

1003.3 hpa

87 %

6.4 km/h aus 117

9.7 km/h aus SE

16.2 C

18.9 C

18.4 C

18.9 C

0 W/m

0.00 mm

03:30

18.4 C

1003.3 hpa

87 %

3.2 km/h aus 116

8.0 km/h aus SE

16.2 C

18.9 C

18.4 C

18.9 C

0 W/m

0.00 mm

03:35

18.4 C

1003.3 hpa

87 %

4.8 km/h aus 117

12.9 km/h aus SSE

16.2 C

18.9 C

18.4 C

18.9 C

0 W/m

0.00 mm

03:40

18.4 C

1003.3 hpa

87 %

3.2 km/h aus 115

8.0 km/h aus SE

16.2 C

18.9 C

18.4 C

18.9 C

0 W/m

0.00 mm

03:45

18.4 C

1003.3 hpa

87 %

3.2 km/h aus 116

8.0 km/h aus SE

16.2 C

18.9 C

18.4 C

18.9 C

0 W/m

0.00 mm

03:50

18.4 C

1003.3 hpa

87 %

1.6 km/h aus 117

4.8 km/h aus SE

16.2 C

18.9 C

18.4 C

18.9 C

0 W/m

0.00 mm

03:55

18.3 C

1003.3 hpa

87 %

4.8 km/h aus 117

9.7 km/h aus SE

16.1 C

18.8 C

18.3 C

18.8 C

0 W/m

0.00 mm

04:00

18.3 C

1003.0 hpa

87 %

3.2 km/h aus 115

8.0 km/h aus SE

16.1 C

18.8 C

18.3 C

18.8 C

0 W/m

0.00 mm

04:05

18.3 C

1003.0 hpa

87 %

1.6 km/h aus 114

9.7 km/h aus SE

16.1 C

18.8 C

18.3 C

18.8 C

0 W/m

0.00 mm

04:10

18.3 C

1003.0 hpa

87 %

3.2 km/h aus 117

8.0 km/h aus SE

16.1 C

18.8 C

18.3 C

18.8 C

0 W/m

0.00 mm

04:15

18.2 C

1003.0 hpa

87 %

3.2 km/h aus 116

8.0 km/h aus SE

16.0 C

18.7 C

18.2 C

18.7 C

0 W/m

0.00 mm

04:20

18.2 C

1003.0 hpa

87 %

4.8 km/h aus 117

8.0 km/h aus SE

16.0 C

18.7 C

18.2 C

18.7 C

0 W/m

0.00 mm

04:25

18.2 C

1003.0 hpa

87 %

4.8 km/h aus 115

8.0 km/h aus SE

16.0 C

18.7 C

18.2 C

18.7 C

0 W/m

0.00 mm

04:30

18.2 C

1002.7 hpa

87 %

4.8 km/h aus 114

8.0 km/h aus SE

16.0 C

18.6 C

18.2 C

18.6 C

0 W/m

0.00 mm

04:35

18.2 C

1002.7 hpa

87 %

4.8 km/h aus 116

8.0 km/h aus SE

16.0 C

18.6 C

18.2 C

18.6 C

0 W/m

0.00 mm

04:40

18.1 C

1002.7 hpa

87 %

4.8 km/h aus 117

9.7 km/h aus SE

15.9 C

18.6 C

18.1 C

18.6 C

0 W/m

0.00 mm

04:45

18.1 C

1002.8 hpa

87 %

4.8 km/h aus 117

9.7 km/h aus SE

15.9 C

18.6 C

18.1 C

18.6 C

0 W/m

0.00 mm

04:50

18.1 C

1002.8 hpa

87 %

6.4 km/h aus 114

9.7 km/h aus SE

15.9 C

18.5 C

18.1 C

18.5 C

0 W/m

0.00 mm

04:55

18.1 C

1002.8 hpa

87 %

6.4 km/h aus 116

11.3 km/h aus SE

15.9 C

18.5 C

18.1 C

18.5 C

2 W/m

0.00 mm

05:00

18.0 C

1002.8 hpa

87 %

4.8 km/h aus 117

9.7 km/h aus SE

15.8 C

18.4 C

18.0 C

18.4 C

5 W/m

0.00 mm

05:05

17.9 C

1002.8 hpa

87 %

6.4 km/h aus 117

9.7 km/h aus SE

15.7 C

18.3 C

17.9 C

18.3 C

0 W/m

0.00 mm

05:10

17.9 C

1002.8 hpa

87 %

4.8 km/h aus 116

9.7 km/h aus SE

15.7 C

18.3 C

17.9 C

18.3 C

3 W/m

0.00 mm

05:15

17.9 C

1002.7 hpa

87 %

6.4 km/h aus 114

11.3 km/h aus SE

15.7 C

18.3 C

17.9 C

18.3 C

6 W/m

0.00 mm

05:20

17.9 C

1002.7 hpa

88 %

4.8 km/h aus 117

11.3 km/h aus SE

15.9 C

18.3 C

17.9 C

18.3 C

7 W/m

0.00 mm

05:25

17.8 C

1002.7 hpa

88 %

6.4 km/h aus 116

11.3 km/h aus ESE

15.8 C

18.2 C

17.8 C

18.2 C

10 W/m

0.00 mm

05:30

17.8 C

1002.8 hpa

88 %

8.0 km/h aus 117

11.3 km/h aus ESE

15.8 C

18.2 C

17.8 C

18.2 C

13 W/m

0.00 mm

05:35

17.8 C

1002.8 hpa

88 %

8.0 km/h aus 114

14.5 km/h aus SE

15.8 C

18.2 C

17.8 C

18.2 C

19 W/m

0.00 mm

05:40

17.8 C

1002.8 hpa

88 %

6.4 km/h aus 115

11.3 km/h aus ESE

15.8 C

18.2 C

17.8 C

18.2 C

27 W/m

0.00 mm

05:45

17.8 C

1002.6 hpa

88 %

4.8 km/h aus 116

11.3 km/h aus ESE

15.8 C

18.2 C

17.8 C

18.2 C

30 W/m

0.00 mm

05:50

17.8 C

1002.6 hpa

88 %

3.2 km/h aus 117

8.0 km/h aus ESE

15.8 C

18.2 C

17.8 C

18.2 C

30 W/m

0.00 mm

05:55

17.8 C

1002.6 hpa

88 %

4.8 km/h aus 116

9.7 km/h aus ESE

15.8 C

18.2 C

17.8 C

18.2 C

30 W/m

0.00 mm

06:00

17.8 C

1002.3 hpa

88 %

3.2 km/h aus 113

9.7 km/h aus ESE

15.8 C

18.2 C

17.8 C

18.2 C

32 W/m

0.00 mm

06:05

17.8 C

1002.3 hpa

88 %

0.0 km/h aus 117

6.4 km/h aus ESE

15.8 C

18.2 C

17.8 C

18.2 C

39 W/m

0.00 mm

06:10

17.8 C

1002.3 hpa

88 %

4.8 km/h aus 117

11.3 km/h aus SE

15.8 C

18.2 C

17.8 C

18.2 C

57 W/m

0.00 mm

06:15

17.9 C

1002.3 hpa

88 %

4.8 km/h aus 117

11.3 km/h aus SE

15.9 C

18.3 C

17.9 C

18.3 C

93 W/m

0.00 mm

06:20

18.0 C

1002.3 hpa

88 %

8.0 km/h aus 116

16.1 km/h aus ESE

16.0 C

18.4 C

18.0 C

18.4 C

132 W/m

0.00 mm

06:25

18.2 C

1002.3 hpa

88 %

8.0 km/h aus 115

19.3 km/h aus SE

16.1 C

18.7 C

18.2 C

18.7 C

150 W/m

0.00 mm

06:30

18.4 C

1002.4 hpa

88 %

8.0 km/h aus 117

19.3 km/h aus ESE

16.4 C

18.9 C

18.4 C

18.9 C

129 W/m

0.00 mm

06:35

18.6 C

1002.4 hpa

87 %

11.3 km/h aus 117

27.4 km/h aus ESE

16.3 C

19.1 C

18.6 C

19.1 C

108 W/m

0.00 mm

06:40

18.7 C

1002.4 hpa

87 %

11.3 km/h aus 117

22.5 km/h aus SSE

16.5 C

19.2 C

18.7 C

19.2 C

78 W/m

0.00 mm

06:45

18.8 C

1002.4 hpa

86 %

11.3 km/h aus 114

20.9 km/h aus SE

16.4 C

19.3 C

18.8 C

19.3 C

60 W/m

0.00 mm

06:50

18.8 C

1002.4 hpa

86 %

9.7 km/h aus 116

20.9 km/h aus SE

16.4 C

19.4 C

18.8 C

19.4 C

74 W/m

0.00 mm

06:55

18.8 C

1002.4 hpa

85 %

9.7 km/h aus 116

19.3 km/h aus SE

16.3 C

19.4 C

18.8 C

19.4 C

82 W/m

0.00 mm

07:00

18.9 C

1002.2 hpa

85 %

9.7 km/h aus 116

20.9 km/h aus SE

16.3 C

19.4 C

18.9 C

19.4 C

132 W/m

0.00 mm

07:05

19.0 C

1002.2 hpa

85 %

9.7 km/h aus 116

17.7 km/h aus SSE

16.4 C

19.6 C

19.0 C

19.6 C

186 W/m

0.00 mm

07:10

19.2 C

1002.2 hpa

85 %

11.3 km/h aus 114

22.5 km/h aus SE

16.6 C

19.8 C

19.2 C

19.8 C

190 W/m

0.00 mm

07:15

19.3 C

1002.0 hpa

84 %

12.9 km/h aus 116

25.7 km/h aus SSE

16.6 C

19.7 C

19.0 C

20.0 C

146 W/m

0.00 mm

07:20

19.4 C

1002.0 hpa

84 %

12.9 km/h aus 117

22.5 km/h aus SSE

16.7 C

19.8 C

19.1 C

20.2 C

162 W/m

0.00 mm

07:25

19.6 C

1002.0 hpa

84 %

12.9 km/h aus 117

20.9 km/h aus SE

16.8 C

20.0 C

19.3 C

20.3 C

260 W/m

0.00 mm

07:30

19.9 C

1001.9 hpa

83 %

12.9 km/h aus 114

27.4 km/h aus SE

16.9 C

20.3 C

19.5 C

20.7 C

313 W/m

0.00 mm

07:35

20.2 C

1001.9 hpa

82 %

12.9 km/h aus 115

29.0 km/h aus SSE

17.0 C

20.7 C

19.8 C

21.1 C

379 W/m

0.00 mm

07:40

20.4 C

1001.9 hpa

81 %

16.1 km/h aus 116

30.6 km/h aus SSE

17.1 C

20.1 C

19.3 C

21.3 C

143 W/m

0.00 mm

07:45

20.4 C

1001.8 hpa

80 %

12.9 km/h aus 117

32.2 km/h aus SE

16.8 C

20.8 C

20.0 C

21.2 C

106 W/m

0.00 mm

07:50

20.3 C

1001.8 hpa

80 %

16.1 km/h aus 116

29.0 km/h aus ESE

16.8 C

19.9 C

19.2 C

21.1 C

127 W/m

0.00 mm

07:55

20.4 C

1001.8 hpa

81 %

11.3 km/h aus 114

20.9 km/h aus SSE

17.1 C

21.3 C

20.4 C

21.3 C

335 W/m

0.00 mm

08:00

20.7 C

1001.8 hpa

80 %

14.5 km/h aus 117

29.0 km/h aus SSE

17.1 C

20.7 C

19.9 C

21.4 C

338 W/m

0.00 mm

08:05

20.9 C

1001.8 hpa

80 %

12.9 km/h aus 117

25.7 km/h aus SE

17.3 C

21.3 C

20.6 C

21.6 C

352 W/m

0.00 mm

08:10

21.2 C

1001.8 hpa

79 %

12.9 km/h aus 117

24.1 km/h aus ESE

17.4 C

21.4 C

20.9 C

21.7 C

404 W/m

0.00 mm

08:15

21.4 C

1001.8 hpa

78 %

16.1 km/h aus 115

29.0 km/h aus E

17.4 C

20.8 C

20.3 C

22.0 C

387 W/m

0.00 mm

08:20

21.7 C

1001.8 hpa

77 %

14.5 km/h aus 116

27.4 km/h aus ESE

17.5 C

21.4 C

20.9 C

22.2 C

447 W/m

0.00 mm

08:25

21.9 C

1001.8 hpa

76 %

19.3 km/h aus 117

33.8 km/h aus SE

17.5 C

20.8 C

20.3 C

22.5 C

471 W/m

0.00 mm

08:30

22.0 C

1002.2 hpa

75 %

17.7 km/h aus 117

29.0 km/h aus SE

17.4 C

21.1 C

20.6 C

22.5 C

496 W/m

0.00 mm

08:35

21.8 C

1002.2 hpa

75 %

14.5 km/h aus 115

30.6 km/h aus SSE

17.2 C

21.6 C

21.1 C

22.3 C

255 W/m

0.00 mm

08:40

21.6 C

1002.2 hpa

76 %

12.9 km/h aus 116

29.0 km/h aus SE

17.2 C

21.8 C

21.3 C

22.1 C

289 W/m

0.00 mm

08:45

21.7 C

1002.2 hpa

75 %

16.1 km/h aus 117

25.7 km/h aus ESE

17.1 C

21.0 C

20.6 C

22.2 C

287 W/m

0.00 mm

08:50

21.9 C

1002.2 hpa

75 %

14.5 km/h aus 116

25.7 km/h aus SE

17.3 C

21.6 C

21.1 C

22.4 C

284 W/m

0.00 mm

08:55

22.0 C

1002.2 hpa

76 %

11.3 km/h aus 115

22.5 km/h aus SE

17.6 C

22.6 C

22.0 C

22.6 C

260 W/m

0.00 mm

09:00

22.1 C

1002.3 hpa

74 %

17.7 km/h aus 115

29.0 km/h aus S

17.3 C

21.2 C

20.7 C

22.6 C

217 W/m

0.00 mm

09:05

22.1 C

1002.3 hpa

73 %

16.1 km/h aus 116

32.2 km/h aus SSE

17.0 C

21.4 C

20.9 C

22.6 C

172 W/m

0.00 mm

09:10

22.0 C

1002.3 hpa

74 %

14.5 km/h aus 117

24.1 km/h aus SSE

17.2 C

21.7 C

21.2 C

22.5 C

169 W/m

0.00 mm

09:15

21.9 C

1002.1 hpa

73 %

19.3 km/h aus 117

33.8 km/h aus S

16.8 C

20.6 C

20.2 C

22.3 C

169 W/m

0.00 mm

09:20

22.2 C

1002.1 hpa

74 %

11.3 km/h aus 114

24.1 km/h aus SSE

17.3 C

22.7 C

22.2 C

22.7 C

352 W/m

0.00 mm

09:25

23.1 C

1002.1 hpa

72 %

14.5 km/h aus 116

27.4 km/h aus SE

17.7 C

23.2 C

22.3 C

23.9 C

549 W/m

0.00 mm

09:30

23.7 C

1002.0 hpa

69 %

17.7 km/h aus 115

37.0 km/h aus SSE

17.7 C

23.3 C

22.4 C

24.6 C

562 W/m

0.00 mm

09:35

24.0 C

1002.0 hpa

68 %

22.5 km/h aus 117

38.6 km/h aus S

17.7 C

22.9 C

22.1 C

24.8 C

567 W/m

0.00 mm

09:40

24.3 C

1002.0 hpa

68 %

22.5 km/h aus 115

33.8 km/h aus SSE

18.0 C

23.3 C

22.4 C

25.2 C

571 W/m

0.00 mm

09:45

24.4 C

1002.0 hpa

67 %

22.5 km/h aus 114

37.0 km/h aus S

17.9 C

23.3 C

22.6 C

25.2 C

512 W/m

0.00 mm

09:50

24.4 C

1002.0 hpa

69 %

20.9 km/h aus 116

33.8 km/h aus S

18.3 C

23.6 C

22.7 C

25.3 C

502 W/m

0.00 mm

09:55

24.2 C

1002.0 hpa

66 %

25.7 km/h aus 117

46.7 km/h aus SSE

17.4 C

22.8 C

22.0 C

24.9 C

416 W/m

0.00 mm

10:00

23.9 C

1002.2 hpa

68 %

24.1 km/h aus 117

41.8 km/h aus S

17.7 C

22.7 C

21.8 C

24.8 C

415 W/m

0.00 mm

10:05

23.8 C

1002.2 hpa

67 %

24.1 km/h aus 114

46.7 km/h aus SSE

17.3 C

22.4 C

21.7 C

24.6 C

434 W/m

0.00 mm

10:10

23.6 C

1002.2 hpa

67 %

29.0 km/h aus 117

43.5 km/h aus S

17.1 C

21.9 C

21.1 C

24.4 C

422 W/m

0.00 mm

10:15

23.3 C

1002.3 hpa

68 %

29.0 km/h aus 118

46.7 km/h aus S

17.0 C

21.5 C

20.7 C

24.1 C

362 W/m

0.00 mm

10:20

23.0 C

1002.3 hpa

71 %

24.1 km/h aus 116

41.8 km/h aus S

17.5 C

21.6 C

20.8 C

23.8 C

269 W/m

0.00 mm

10:25

22.5 C

1002.3 hpa

72 %

24.1 km/h aus 115

38.6 km/h aus S

17.2 C

20.8 C

20.3 C

23.1 C

224 W/m

0.00 mm

10:30

22.3 C

1002.7 hpa

73 %

19.3 km/h aus 115

33.8 km/h aus S

17.3 C

21.2 C

20.7 C

22.9 C

240 W/m

0.00 mm

10:35

22.3 C

1002.7 hpa

73 %

25.7 km/h aus 117

40.2 km/h aus S

17.2 C

20.3 C

19.8 C

22.8 C

280 W/m

0.00 mm

10:40

22.2 C

1002.7 hpa

75 %

22.5 km/h aus 116

38.6 km/h aus S

17.5 C

20.6 C

20.1 C

22.7 C

273 W/m

0.00 mm

10:45

22.1 C

1002.8 hpa

76 %

17.7 km/h aus 115

27.4 km/h aus S

17.7 C

21.2 C

20.7 C

22.7 C

267 W/m

0.00 mm

10:50

21.9 C

1002.8 hpa

75 %

19.3 km/h aus 115

33.8 km/h aus S

17.3 C

20.8 C

20.3 C

22.4 C

270 W/m

0.00 mm

10:55

21.6 C

1002.8 hpa

74 %

27.4 km/h aus 117

46.7 km/h aus S

16.8 C

19.3 C

18.9 C

22.0 C

250 W/m

0.00 mm

11:00

21.3 C

1003.0 hpa

73 %

27.4 km/h aus 117

45.1 km/h aus SSE

16.3 C

18.9 C

18.7 C

21.6 C

216 W/m

0.00 mm

11:05

21.2 C

1003.0 hpa

74 %

25.7 km/h aus 115

40.2 km/h aus S

16.3 C

18.9 C

18.6 C

21.4 C

159 W/m

0.00 mm

11:10

20.9 C

1003.0 hpa

74 %

20.9 km/h aus 114

38.6 km/h aus S

16.1 C

19.3 C

19.0 C

21.3 C

129 W/m

0.00 mm

11:15

20.8 C

1003.0 hpa

75 %

22.5 km/h aus 117

35.4 km/h aus S

16.2 C

19.0 C

18.6 C

21.2 C

109 W/m

0.00 mm

11:20

20.5 C

1003.0 hpa

77 %

19.3 km/h aus 117

33.8 km/h aus SSE

16.3 C

19.4 C

18.8 C

21.2 C

105 W/m

0.00 mm

11:25

20.1 C

1003.0 hpa

79 %

12.9 km/h aus 117

30.6 km/h aus SE

16.4 C

20.4 C

19.7 C

20.8 C

128 W/m

0.00 mm

11:30

19.8 C

1002.2 hpa

81 %

11.3 km/h aus 115

29.0 km/h aus SE

16.4 C

20.5 C

19.8 C

20.5 C

144 W/m

0.00 mm

11:35

19.7 C

1002.2 hpa

83 %

11.3 km/h aus 115

24.1 km/h aus SE

16.7 C

20.4 C

19.7 C

20.4 C

138 W/m

0.25 mm

11:40

19.6 C

1002.2 hpa

84 %

17.7 km/h aus 117

32.2 km/h aus SE

16.8 C

18.9 C

18.2 C

20.3 C

127 W/m

0.00 mm

11:45

19.6 C

1002.2 hpa

85 %

17.7 km/h aus 117

33.8 km/h aus S

17.0 C

18.8 C

18.1 C

20.3 C

132 W/m

0.00 mm

11:50

19.3 C

1002.2 hpa

85 %

19.3 km/h aus 117

37.0 km/h aus SE

16.7 C

18.2 C

17.6 C

20.0 C

135 W/m

0.25 mm

11:55

19.2 C

1002.2 hpa

85 %

20.9 km/h aus 114

41.8 km/h aus SE

16.6 C

17.7 C

17.1 C

19.8 C

132 W/m

0.00 mm

12:00

19.2 C

1001.2 hpa

86 %

24.1 km/h aus 117

43.5 km/h aus E

16.8 C

17.3 C

16.7 C

19.8 C

113 W/m

0.00 mm

12:05

19.1 C

1001.2 hpa

86 %

24.1 km/h aus 117

49.9 km/h aus ESE

16.7 C

17.1 C

16.5 C

19.7 C

98 W/m

0.00 mm

12:10

19.1 C

1001.2 hpa

86 %

22.5 km/h aus 116

38.6 km/h aus ESE

16.7 C

17.3 C

16.7 C

19.7 C

91 W/m

0.00 mm

12:15

18.9 C

1001.2 hpa

86 %

16.1 km/h aus 115

33.8 km/h aus E

16.5 C

18.4 C

17.8 C

19.6 C

90 W/m

0.25 mm

12:20

18.9 C

1001.2 hpa

86 %

19.3 km/h aus 114

30.6 km/h aus SE

16.5 C

17.7 C

17.1 C

19.6 C

99 W/m

0.00 mm

12:25

18.8 C

1001.2 hpa

86 %

14.5 km/h aus 117

27.4 km/h aus SE

16.4 C

18.7 C

18.1 C

19.4 C

127 W/m

0.00 mm

12:30

18.8 C

1001.2 hpa

87 %

11.3 km/h aus 117

24.1 km/h aus E

16.6 C

19.4 C

18.8 C

19.4 C

152 W/m

0.00 mm

12:35

18.9 C

1001.2 hpa

87 %

9.7 km/h aus 115

20.9 km/h aus ESE

16.7 C

19.6 C

18.9 C

19.6 C

176 W/m

0.00 mm

12:40

19.1 C

1001.2 hpa

87 %

11.3 km/h aus 115

27.4 km/h aus ESE

16.8 C

19.7 C

19.1 C

19.7 C

217 W/m

0.00 mm

12:45

19.2 C

1001.6 hpa

86 %

12.9 km/h aus 115

30.6 km/h aus ESE

16.8 C

19.6 C

18.9 C

19.9 C

235 W/m

0.00 mm

12:50

19.3 C

1001.6 hpa

86 %

17.7 km/h aus 116

33.8 km/h aus ESE

16.9 C

18.6 C

17.9 C

20.1 C

264 W/m

0.00 mm

12:55

19.3 C

1001.6 hpa

86 %

16.1 km/h aus 116

30.6 km/h aus ENE

16.9 C

18.9 C

18.2 C

20.0 C

291 W/m

0.00 mm

13:00

19.3 C

1001.9 hpa

86 %

14.5 km/h aus 115

32.2 km/h aus ESE

16.9 C

19.3 C

18.6 C

20.1 C

279 W/m

0.00 mm

13:05

19.3 C

1001.9 hpa

85 %

16.1 km/h aus 115

32.2 km/h aus SE

16.7 C

18.9 C

18.2 C

20.0 C

203 W/m

0.00 mm

13:10

19.3 C

1001.9 hpa

85 %

11.3 km/h aus 117

22.5 km/h aus SE

16.7 C

19.9 C

19.3 C

19.9 C

161 W/m

0.00 mm

13:15

19.2 C

1002.2 hpa

85 %

12.9 km/h aus 117

27.4 km/h aus ESE

16.6 C

19.6 C

18.9 C

19.9 C

146 W/m

0.00 mm

13:20

19.2 C

1002.2 hpa

85 %

12.9 km/h aus 116

24.1 km/h aus ESE

16.6 C

19.6 C

18.9 C

19.9 C

139 W/m

0.00 mm

13:25

19.2 C

1002.2 hpa

85 %

9.7 km/h aus 113

22.5 km/h aus SE

16.6 C

19.9 C

19.2 C

19.9 C

154 W/m

0.00 mm

13:30

19.3 C

1002.2 hpa

85 %

8.0 km/h aus 118

17.7 km/h aus SE

16.7 C

19.9 C

19.3 C

19.9 C

167 W/m

0.00 mm

13:35

19.4 C

1002.2 hpa

85 %

11.3 km/h aus 116

22.5 km/h aus SE

16.9 C

20.2 C

19.4 C

20.2 C

212 W/m

0.00 mm

13:40

19.7 C

1002.2 hpa

84 %

12.9 km/h aus 117

29.0 km/h aus SSE

16.9 C

20.2 C

19.4 C

20.5 C

333 W/m

0.00 mm

13:45

20.2 C

1002.6 hpa

84 %

14.5 km/h aus 114

30.6 km/h aus ESE

17.4 C

20.3 C

19.4 C

21.1 C

377 W/m

0.00 mm

13:50

20.8 C

1002.6 hpa

83 %

16.1 km/h aus 115

30.6 km/h aus S

17.8 C

20.4 C

19.6 C

21.6 C

549 W/m

0.00 mm

13:55

21.5 C

1002.6 hpa

81 %

20.9 km/h aus 116

37.0 km/h aus SSE

18.1 C

20.3 C

19.6 C

22.2 C

602 W/m

0.00 mm

14:00

21.3 C

1002.7 hpa

81 %

14.5 km/h aus 117

27.4 km/h aus SSE

17.9 C

21.2 C

20.5 C

21.9 C

315 W/m

0.00 mm

14:05

21.3 C

1002.7 hpa

83 %

16.1 km/h aus 115

25.7 km/h aus SSE

18.3 C

20.9 C

20.2 C

22.1 C

398 W/m

0.00 mm

14:10

22.3 C

1002.7 hpa

82 %

17.7 km/h aus 113

32.2 km/h aus SSE

19.1 C

21.7 C

20.8 C

23.2 C

624 W/m

0.00 mm

14:15

22.9 C

1002.3 hpa

80 %

14.5 km/h aus 116

29.0 km/h aus SSE

19.3 C

23.2 C

22.2 C

24.0 C

652 W/m

0.00 mm

14:20

23.3 C

1002.3 hpa

76 %

16.1 km/h aus 117

29.0 km/h aus SE

18.8 C

23.2 C

22.2 C

24.3 C

618 W/m

0.00 mm

14:25

23.6 C

1002.3 hpa

74 %

14.5 km/h aus 117

32.2 km/h aus SSE

18.6 C

23.9 C

22.8 C

24.6 C

605 W/m

0.00 mm

14:30

23.3 C

1002.3 hpa

75 %

17.7 km/h aus 114

30.6 km/h aus S

18.7 C

23.0 C

21.9 C

24.4 C

559 W/m

0.00 mm

14:35

23.2 C

1002.3 hpa

76 %

12.9 km/h aus 117

25.7 km/h aus SE

18.7 C

23.9 C

22.9 C

24.2 C

477 W/m

0.00 mm

14:40

22.9 C

1002.3 hpa

77 %

12.9 km/h aus 117

24.1 km/h aus SSE

18.7 C

23.6 C

22.7 C

23.9 C

386 W/m

0.00 mm

14:45

23.4 C

1002.3 hpa

74 %

17.7 km/h aus 117

35.4 km/h aus SSE

18.5 C

23.1 C

22.0 C

24.4 C

605 W/m

0.00 mm

14:50

23.8 C

1002.3 hpa

74 %

20.9 km/h aus 115

40.2 km/h aus SSE

18.9 C

23.1 C

22.0 C

24.9 C

642 W/m

0.00 mm

14:55

24.2 C

1002.3 hpa

73 %

19.3 km/h aus 116

33.8 km/h aus S

19.0 C

23.8 C

22.7 C

25.3 C

642 W/m

0.00 mm

15:00

23.4 C

1002.5 hpa

72 %

24.1 km/h aus 117

37.0 km/h aus S

18.1 C

22.2 C

21.3 C

24.4 C

334 W/m

0.00 mm

15:05

23.2 C

1002.5 hpa

74 %

22.5 km/h aus 117

38.6 km/h aus S

18.3 C

22.1 C

21.2 C

24.1 C

483 W/m

0.00 mm

15:10

23.4 C

1002.5 hpa

72 %

20.9 km/h aus 115

32.2 km/h aus SSE

18.1 C

22.5 C

21.6 C

24.3 C

536 W/m

0.00 mm

15:15

23.6 C

1002.7 hpa

73 %

19.3 km/h aus 114

32.2 km/h aus S

18.4 C

22.9 C

21.9 C

24.6 C

498 W/m

0.00 mm

15:20

23.7 C

1002.7 hpa

70 %

17.7 km/h aus 117

27.4 km/h aus S

17.9 C

23.3 C

22.4 C

24.7 C

412 W/m

0.00 mm

15:25

23.7 C

1002.7 hpa

70 %

20.9 km/h aus 117

32.2 km/h aus SSE

17.9 C

22.9 C

21.9 C

24.7 C

456 W/m

0.00 mm

15:30

23.6 C

1002.8 hpa

68 %

20.9 km/h aus 116

33.8 km/h aus S

17.4 C

22.7 C

21.8 C

24.4 C

367 W/m

0.00 mm

15:35

23.6 C

1002.8 hpa

68 %

20.9 km/h aus 116

35.4 km/h aus S

17.3 C

22.6 C

21.7 C

24.4 C

458 W/m

0.00 mm

15:40

23.6 C

1002.8 hpa

67 %

20.9 km/h aus 116

35.4 km/h aus SSW

17.1 C

22.6 C

21.8 C

24.4 C

486 W/m

0.00 mm

15:45

23.8 C

1003.2 hpa

66 %

22.5 km/h aus 117

40.2 km/h aus S

17.0 C

22.6 C

21.8 C

24.6 C

472 W/m

0.00 mm

15:50

23.5 C

1003.2 hpa

67 %

24.1 km/h aus 114

37.0 km/h aus S

17.0 C

22.1 C

21.3 C

24.3 C

383 W/m

0.00 mm

15:55

23.2 C

1003.2 hpa

66 %

25.7 km/h aus 115

41.8 km/h aus S

16.5 C

21.6 C

20.9 C

23.9 C

341 W/m

0.00 mm

16:00

23.2 C

1003.3 hpa

67 %

24.1 km/h aus 117

38.6 km/h aus SSW

16.7 C

21.7 C

21.0 C

23.8 C

339 W/m

0.00 mm

16:05

23.1 C

1003.3 hpa

67 %

22.5 km/h aus 115

38.6 km/h aus SSW

16.6 C

21.7 C

21.1 C

23.7 C

307 W/m

0.00 mm

16:10

23.1 C

1003.3 hpa

67 %

20.9 km/h aus 115

32.2 km/h aus SW

16.6 C

21.8 C

21.2 C

23.7 C

322 W/m

0.00 mm

16:15

23.1 C

1003.3 hpa

67 %

17.7 km/h aus 114

33.8 km/h aus S

16.6 C

22.4 C

21.7 C

23.8 C

321 W/m

0.00 mm

16:20

23.1 C

1003.3 hpa

67 %

27.4 km/h aus 116

40.2 km/h aus SSE

16.6 C

21.2 C

20.6 C

23.7 C

333 W/m

0.00 mm

16:25

23.1 C

1003.3 hpa

66 %

24.1 km/h aus 117

38.6 km/h aus S

16.4 C

21.4 C

20.9 C

23.6 C

334 W/m

0.00 mm

16:30

23.0 C

1003.3 hpa

66 %

19.3 km/h aus 116

35.4 km/h aus S

16.3 C

21.9 C

21.3 C

23.6 C

268 W/m

0.00 mm

16:35

22.9 C

1003.3 hpa

66 %

17.7 km/h aus 114

33.8 km/h aus S

16.3 C

22.1 C

21.6 C

23.4 C

210 W/m

0.00 mm

16:40

22.8 C

1003.3 hpa

66 %

20.9 km/h aus 116

32.2 km/h aus S

16.1 C

21.4 C

20.9 C

23.2 C

223 W/m

0.00 mm

16:45

22.8 C

1003.3 hpa

67 %

12.9 km/h aus 117

22.5 km/h aus S

16.4 C

23.1 C

22.6 C

23.3 C

228 W/m

0.00 mm

16:50

22.8 C

1003.3 hpa

66 %

16.1 km/h aus 117

37.0 km/h aus S

16.1 C

22.1 C

21.6 C

23.2 C

180 W/m

0.00 mm

16:55

22.6 C

1003.3 hpa

66 %

17.7 km/h aus 114

27.4 km/h aus S

15.9 C

21.6 C

21.2 C

23.0 C

139 W/m

0.00 mm

17:00

22.5 C

1003.7 hpa

65 %

19.3 km/h aus 115

30.6 km/h aus SSE

15.6 C

21.1 C

20.8 C

22.8 C

100 W/m

0.00 mm

17:05

22.4 C

1003.7 hpa

65 %

12.9 km/h aus 116

22.5 km/h aus S

15.5 C

22.4 C

22.2 C

22.7 C

70 W/m

0.00 mm

17:10

22.4 C

1003.7 hpa

64 %

16.1 km/h aus 116

29.0 km/h aus S

15.2 C

21.4 C

21.2 C

22.6 C

64 W/m

0.00 mm

17:15

22.3 C

1003.9 hpa

64 %

16.1 km/h aus 116

32.2 km/h aus SSW

15.2 C

21.3 C

21.2 C

22.5 C

78 W/m

0.00 mm

17:20

22.3 C

1003.9 hpa

63 %

16.1 km/h aus 113

27.4 km/h aus S

14.9 C

21.3 C

21.2 C

22.4 C

80 W/m

0.00 mm

17:25

22.3 C

1003.9 hpa

63 %

9.7 km/h aus 116

22.5 km/h aus S

14.9 C

22.4 C

22.3 C

22.4 C

122 W/m

0.00 mm

17:30

22.4 C

1004.1 hpa

63 %

8.0 km/h aus 116

19.3 km/h aus S

15.0 C

22.6 C

22.4 C

22.6 C

124 W/m

0.00 mm

17:35

22.3 C

1004.1 hpa

61 %

11.3 km/h aus 117

25.7 km/h aus SSW

14.4 C

22.3 C

22.3 C

22.3 C

143 W/m

0.00 mm

17:40

22.3 C

1004.1 hpa

61 %

8.0 km/h aus 114

19.3 km/h aus SSW

14.4 C

22.3 C

22.3 C

22.3 C

138 W/m

0.00 mm

17:45

22.2 C

1004.1 hpa

61 %

4.8 km/h aus 116

12.9 km/h aus SSW

14.3 C

22.1 C

22.2 C

22.1 C

142 W/m

0.00 mm

17:50

22.2 C

1004.1 hpa

63 %

6.4 km/h aus 117

16.1 km/h aus S

14.8 C

22.2 C

22.2 C

22.2 C

194 W/m

0.00 mm

17:55

22.3 C

1004.1 hpa

62 %

8.0 km/h aus 117

22.5 km/h aus S

14.6 C

22.3 C

22.3 C

22.3 C

212 W/m

0.00 mm

18:00

22.3 C

1004.1 hpa

62 %

9.7 km/h aus 116

27.4 km/h aus S

14.7 C

22.4 C

22.3 C

22.4 C

248 W/m

0.00 mm

18:05

22.5 C

1004.1 hpa

61 %

14.5 km/h aus 114

29.0 km/h aus SSE

14.6 C

21.8 C

21.7 C

22.6 C

258 W/m

0.00 mm

18:10

22.5 C

1004.1 hpa

59 %

16.1 km/h aus 117

27.4 km/h aus S

14.1 C

21.4 C

21.3 C

22.6 C

257 W/m

0.00 mm

18:15

22.5 C

1004.0 hpa

61 %

9.7 km/h aus 117

22.5 km/h aus S

14.6 C

22.6 C

22.5 C

22.6 C

270 W/m

0.00 mm

18:20

22.5 C

1004.0 hpa

59 %

16.1 km/h aus 117

24.1 km/h aus SSW

14.1 C

21.4 C

21.3 C

22.6 C

264 W/m

0.00 mm

18:25

22.5 C

1004.0 hpa

59 %

11.3 km/h aus 113

25.7 km/h aus S

14.1 C

22.6 C

22.5 C

22.6 C

275 W/m

0.00 mm

18:30

22.6 C

1004.1 hpa

58 %

19.3 km/h aus 117

35.4 km/h aus S

13.9 C

20.9 C

20.9 C

22.6 C

292 W/m

0.00 mm

18:35

22.7 C

1004.1 hpa

59 %

16.1 km/h aus 115

25.7 km/h aus S

14.2 C

21.6 C

21.5 C

22.8 C

322 W/m

0.00 mm

18:40

22.7 C

1004.1 hpa

58 %

14.5 km/h aus 117

25.7 km/h aus SSW

14.0 C

22.1 C

21.9 C

22.8 C

308 W/m

0.00 mm

18:45

22.7 C

1004.0 hpa

58 %

11.3 km/h aus 116

24.1 km/h aus SSW

14.0 C

22.7 C

22.7 C

22.7 C

280 W/m

0.00 mm

18:50

22.8 C

1004.0 hpa

59 %

16.1 km/h aus 116

27.4 km/h aus S

14.3 C

21.8 C

21.6 C

22.9 C

349 W/m

0.00 mm

18:55

22.9 C

1004.0 hpa

60 %

17.7 km/h aus 116

27.4 km/h aus S

14.8 C

21.8 C

21.6 C

23.2 C

370 W/m

0.00 mm

19:00

22.8 C

1004.3 hpa

59 %

16.1 km/h aus 116

24.1 km/h aus S

14.3 C

21.8 C

21.6 C

22.9 C

176 W/m

0.00 mm

19:05

22.5 C

1004.3 hpa

61 %

14.5 km/h aus 116

25.7 km/h aus S

14.6 C

21.8 C

21.7 C

22.6 C

144 W/m

0.00 mm

19:10

22.3 C

1004.3 hpa

61 %

14.5 km/h aus 114

20.9 km/h aus S

14.4 C

21.6 C

21.6 C

22.4 C

135 W/m

0.00 mm

19:15

22.0 C

1004.4 hpa

61 %

17.7 km/h aus 117

25.7 km/h aus S

14.1 C

20.4 C

20.6 C

21.9 C

97 W/m

0.00 mm

19:20

21.8 C

1004.4 hpa

62 %

12.9 km/h aus 116

24.1 km/h aus S

14.2 C

21.3 C

21.5 C

21.6 C

78 W/m

0.00 mm

19:25

21.8 C

1004.4 hpa

62 %

14.5 km/h aus 116

29.0 km/h aus S

14.2 C

20.8 C

21.0 C

21.6 C

73 W/m

0.00 mm

19:30

21.7 C

1004.6 hpa

62 %

11.3 km/h aus 115

22.5 km/h aus SSW

14.1 C

21.6 C

21.7 C

21.6 C

76 W/m

0.00 mm

19:35

21.7 C

1004.6 hpa

61 %

14.5 km/h aus 117

25.7 km/h aus S

13.9 C

20.7 C

20.9 C

21.5 C

70 W/m

0.00 mm

19:40

21.7 C

1004.6 hpa

61 %

12.9 km/h aus 117

20.9 km/h aus S

13.8 C

21.2 C

21.4 C

21.4 C

69 W/m

0.00 mm

19:45

21.6 C

1004.8 hpa

61 %

12.9 km/h aus 117

20.9 km/h aus S

13.7 C

21.0 C

21.3 C

21.3 C

67 W/m

0.00 mm

19:50

21.5 C

1004.8 hpa

62 %

9.7 km/h aus 115

16.1 km/h aus S

13.9 C

21.3 C

21.5 C

21.3 C

57 W/m

0.00 mm

19:55

21.4 C

1004.8 hpa

62 %

12.9 km/h aus 115

25.7 km/h aus S

13.8 C

20.8 C

21.1 C

21.1 C

48 W/m

0.00 mm

20:00

21.3 C

1004.8 hpa

60 %

16.1 km/h aus 117

25.7 km/h aus S

13.2 C

19.7 C

20.1 C

20.9 C

38 W/m

0.00 mm

20:05

21.2 C

1004.8 hpa

60 %

11.3 km/h aus 116

24.1 km/h aus SSE

13.1 C

20.8 C

21.2 C

20.8 C

32 W/m

0.00 mm

20:10

21.2 C

1004.8 hpa

60 %

11.3 km/h aus 115

17.7 km/h aus SSE

13.1 C

20.7 C

21.2 C

20.7 C

41 W/m

0.00 mm

20:15

21.2 C

1005.2 hpa

61 %

8.0 km/h aus 115

17.7 km/h aus S

13.3 C

20.8 C

21.2 C

20.8 C

46 W/m

0.00 mm

20:20

21.1 C

1005.2 hpa

63 %

3.2 km/h aus 115

9.7 km/h aus S

13.8 C

20.8 C

21.1 C

20.8 C

44 W/m

0.00 mm

20:25

21.1 C

1005.2 hpa

63 %

9.7 km/h aus 117

19.3 km/h aus S

13.7 C

20.8 C

21.1 C

20.8 C

35 W/m

0.00 mm

20:30

20.9 C

1005.4 hpa

64 %

6.4 km/h aus 116

11.3 km/h aus S

13.9 C

20.8 C

20.9 C

20.8 C

22 W/m

0.00 mm

20:35

20.8 C

1005.4 hpa

63 %

9.7 km/h aus 114

19.3 km/h aus S

13.5 C

20.6 C

20.8 C

20.6 C

16 W/m

0.00 mm

20:40

20.8 C

1005.4 hpa

62 %

4.8 km/h aus 117

16.1 km/h aus S

13.2 C

20.5 C

20.8 C

20.5 C

18 W/m

0.00 mm

20:45

20.7 C

1005.6 hpa

63 %

3.2 km/h aus 117

6.4 km/h aus SSW

13.4 C

20.5 C

20.7 C

20.5 C

10 W/m

0.00 mm

20:50

20.7 C

1005.6 hpa

64 %

4.8 km/h aus 118

17.7 km/h aus S

13.6 C

20.6 C

20.7 C

20.6 C

11 W/m

0.00 mm

20:55

20.6 C

1005.6 hpa

62 %

6.4 km/h aus 114

11.3 km/h aus SSW

13.1 C

20.4 C

20.6 C

20.4 C

25 W/m

0.00 mm

21:00

20.6 C

1005.8 hpa

62 %

4.8 km/h aus 114

14.5 km/h aus SSW

13.0 C

20.3 C

20.6 C

20.3 C

32 W/m

0.00 mm

21:05

20.6 C

1005.8 hpa

61 %

6.4 km/h aus 117

17.7 km/h aus WSW

12.8 C

20.3 C

20.6 C

20.3 C

25 W/m

0.00 mm

21:10

20.5 C

1005.8 hpa

61 %

4.8 km/h aus 117

19.3 km/h aus S

12.7 C

20.2 C

20.5 C

20.2 C

16 W/m

0.00 mm

21:15

20.5 C

1005.9 hpa

60 %

3.2 km/h aus 117

11.3 km/h aus SSW

12.5 C

20.2 C

20.5 C

20.2 C

14 W/m

0.00 mm

21:20

20.4 C

1005.9 hpa

61 %

1.6 km/h aus 114

11.3 km/h aus SSW

12.7 C

20.2 C

20.4 C

20.2 C

15 W/m

0.00 mm

21:25

20.4 C

1005.9 hpa

61 %

4.8 km/h aus 117

14.5 km/h aus SSW

12.7 C

20.2 C

20.4 C

20.2 C

20 W/m

0.00 mm

21:30

20.4 C

1006.0 hpa

61 %

6.4 km/h aus 117

11.3 km/h aus SSW

12.6 C

20.2 C

20.4 C

20.2 C

21 W/m

0.00 mm

21:35

20.4 C

1006.0 hpa

60 %

6.4 km/h aus 117

11.3 km/h aus SSW

12.4 C

20.1 C

20.4 C

20.1 C

19 W/m

0.00 mm

21:40

20.3 C

1006.0 hpa

60 %

3.2 km/h aus 115

14.5 km/h aus S

12.3 C

20.1 C

20.3 C

20.1 C

17 W/m

0.00 mm

21:45

20.3 C

1006.4 hpa

60 %

1.6 km/h aus 114

9.7 km/h aus SSW

12.3 C

20.1 C

20.3 C

20.1 C

12 W/m

0.00 mm

21:50

20.3 C

1006.4 hpa

61 %

1.6 km/h aus 117

6.4 km/h aus SW

12.5 C

20.1 C

20.3 C

20.1 C

9 W/m

0.00 mm

21:55

20.2 C

1006.4 hpa

61 %

0.0 km/h aus 118

4.8 km/h aus SW

12.5 C

20.1 C

20.2 C

20.1 C

3 W/m

0.00 mm

22:00

20.2 C

1006.5 hpa

61 %

4.8 km/h aus 117

14.5 km/h aus SSW

12.4 C

20.0 C

20.2 C

20.0 C

0 W/m

0.00 mm

22:05

20.1 C

1006.5 hpa

61 %

4.8 km/h aus 113

8.0 km/h aus SW

12.4 C

19.9 C

20.1 C

19.9 C

0 W/m

0.00 mm

22:10

20.0 C

1006.5 hpa

61 %

4.8 km/h aus 116

12.9 km/h aus SW

12.2 C

19.9 C

20.0 C

19.9 C

0 W/m

0.00 mm

22:15

19.9 C

1006.9 hpa

61 %

3.2 km/h aus 117

9.7 km/h aus SW

12.2 C

19.8 C

19.9 C

19.8 C

0 W/m

0.00 mm

22:20

19.9 C

1006.9 hpa

61 %

1.6 km/h aus 117

8.0 km/h aus SSW

12.2 C

19.8 C

19.9 C

19.8 C

0 W/m

0.00 mm

22:25

19.9 C

1006.9 hpa

61 %

1.6 km/h aus 115

4.8 km/h aus SSW

12.1 C

19.8 C

19.9 C

19.8 C

0 W/m

0.00 mm

22:30

19.8 C

1007.3 hpa

61 %

1.6 km/h aus 115

6.4 km/h aus SW

12.1 C

19.7 C

19.8 C

19.7 C

0 W/m

0.00 mm

22:35

19.8 C

1007.3 hpa

61 %

1.6 km/h aus 117

9.7 km/h aus SSW

12.0 C

19.6 C

19.8 C

19.6 C

0 W/m

0.00 mm

22:40

19.8 C

1007.3 hpa

62 %

4.8 km/h aus 116

9.7 km/h aus SSW

12.3 C

19.7 C

19.8 C

19.7 C

0 W/m

0.00 mm

22:45

19.7 C

1007.5 hpa

62 %

4.8 km/h aus 117

8.0 km/h aus SSW

12.2 C

19.6 C

19.7 C

19.6 C

0 W/m

0.00 mm

22:50

19.6 C

1007.5 hpa

62 %

4.8 km/h aus 114

9.7 km/h aus SSW

12.1 C

19.4 C

19.6 C

19.4 C

0 W/m

0.00 mm

22:55

19.4 C

1007.5 hpa

62 %

3.2 km/h aus 116

8.0 km/h aus SSW

12.0 C

19.3 C

19.4 C

19.3 C

0 W/m

0.00 mm

23:00

19.3 C

1007.8 hpa

63 %

1.6 km/h aus 118

8.0 km/h aus SW

12.1 C

19.2 C

19.3 C

19.2 C

0 W/m

0.00 mm

23:05

19.2 C

1007.8 hpa

64 %

1.6 km/h aus 117

11.3 km/h aus SW

12.2 C

19.1 C

19.2 C

19.1 C

0 W/m

0.00 mm

23:10

19.1 C

1007.8 hpa

64 %

6.4 km/h aus 116

17.7 km/h aus SW

12.1 C

18.9 C

19.1 C

18.9 C

0 W/m

0.00 mm

23:15

18.9 C

1008.1 hpa

64 %

4.8 km/h aus 115

11.3 km/h aus SW

12.0 C

18.8 C

18.9 C

18.8 C

0 W/m

0.00 mm

23:20

18.9 C

1008.1 hpa

64 %

1.6 km/h aus 117

9.7 km/h aus SW

11.9 C

18.7 C

18.9 C

18.7 C

0 W/m

0.00 mm

23:25

18.8 C

1008.1 hpa

66 %

3.2 km/h aus 115

8.0 km/h aus SW

12.3 C

18.8 C

18.8 C

18.8 C

0 W/m

0.00 mm

23:30

18.8 C

1008.1 hpa

66 %

4.8 km/h aus 116

9.7 km/h aus SW

12.3 C

18.7 C

18.8 C

18.7 C

0 W/m

0.00 mm

23:35

18.6 C

1008.1 hpa

66 %

4.8 km/h aus 114

9.7 km/h aus SSW

12.1 C

18.5 C

18.6 C

18.5 C

0 W/m

0.00 mm

23:40

18.5 C

1008.1 hpa

66 %

4.8 km/h aus 116

11.3 km/h aus SW

12.0 C

18.4 C

18.5 C

18.4 C

0 W/m

0.00 mm

23:45

18.3 C

1008.3 hpa

66 %

3.2 km/h aus 117

9.7 km/h aus SW

11.9 C

18.2 C

18.3 C

18.2 C

0 W/m

0.00 mm

23:50

18.3 C

1008.3 hpa

67 %

3.2 km/h aus 116

9.7 km/h aus SW

12.0 C

18.2 C

18.3 C

18.2 C

0 W/m

0.00 mm

23:55

18.2 C

1008.3 hpa

67 %

1.6 km/h aus 117

6.4 km/h aus SW

11.9 C

18.1 C

18.2 C

18.1 C

0 W/m

0.00 mm